Location: Austin
(30.3000°N, 97.7500°W)
Time: 22:53:50
(UTC-05:00)

Cosmos 2082 Rocket - Pass Details

Date: 15 March 2026
Orbit: 831 x 854 km, 71.0° (Epoch: 20 April)

Event Time Altitude Azimuth Distance (km) Brightness Sun altitude
Rises 21:01:10 0° 323° (NW) 3,423 6.1 -18.4°
Reaches altitude 10° 21:04:03 10° 310° (NW) 2,483 5.5 -19.0°
Maximum altitude 21:08:29 24° 259° (W) 1,703 4.5 -20.0°
Drops below altitude 10° 21:12:54 10° 207° (SSW) 2,466 4.8 -20.9°
Sets 21:15:47 0° 194° (SSW) 3,394 5.4 -21.5°
